CAPE
3 283 469 442 535 386 369 310 484 668 587 494 415 430 319 141 98 108 151 89 121 110
0 0 50 130 184 305 333 314 259 334 501 561 396 344 268 200 94 116 112 140 134 46
0 0 0 28 66 117 211 292 310 217 221 329 466 337 216 158 112 119 126 97 88 14
0 0 0 0 0 0 27 56 110 142 201 220 268 305 300 84 84 100 92 130 25 8
3 12 6 5 0 0 0 0 15 67 132 188 135 101 89 64 82 108 64 37 1 0
42 93 52 37 19 0 0 0 3 9 52 24 41 86 97 104 97 77 14 1 2 17
8 165 137 103 58 9 29 153 119 178 68 88 81 124 87 16 3 25 45 0 14 1
30 115 123 171 59 98 197 97 110 86 88 86 86 82 10 24 5 14 0 0 10 8
59 127 159 117 180 122 225 127 146 76 38 62 22 2 9 0 7 12 10 6 0 0
77 81 53 53 77 93 74 50 13 19 28 15 10 14 4 7 3 4 0 0 0 0
39 10 42 16 15 19 8 11 20 5 0 18 16 0 3 0 0 0 0 0 0 0
0 1 1 5 4 1 0 0 0 0 0 0 0 0 0 0 0 0 0 0 0 0
0 0 0 1 0 2 0 0 0 0 0 0 0 0 0 0 0 0 0 0 0 0
0 3 0 0 0 0 0 0 0 0 0 0 0 0 0 0 0 0 0 0 0 0
CIN
-15 -69 -75 -78 -63 -73 -66 -41 -38 -33 -59 -52 -61 -50 -40 -40 -26 -8 -0 -0 -0 -1
0 0 -220 -138 -159 -89 -67 -52 -47 -31 -40 -34 -40 -46 -49 -31 -21 -1 0 -3 -1 -1
0 0 0 -242 -169 -127 -126 -82 -64 -52 -42 -56 -33 -33 -24 -22 -3 0 0 0 -1 -15
0 0 0 0 0 0 -116 -116 -122 -98 -56 -45 -42 -17 -9 -13 -4 -0 0 -1 -17 0
-180 -176 -189 -209 0 0 0 0 -81 -137 -50 -32 -25 -22 -19 -1 -0 0 -1 -2 -11 0
-94 -98 -127 -140 -108 0 0 -0 0 -15 -41 -44 -29 -12 -21 -25 -13 -1 -6 0 -1 -2
-91 -57 -49 -51 -46 -37 -23 -4 -13 -1 -11 -47 -47 -16 -5 -9 -1 -3 -5 -0 -0 -1
-85 -42 -37 -25 -45 -17 -1 -1 -1 -3 -14 -40 -56 -27 -5 -1 -43 0 0 0 -1 -1
-45 -24 -17 -13 -2 -1 0 -2 0 0 0 0 0 -4 0 0 0 0 -2 0 0 0
-18 -15 -14 -13 -0 -10 -13 -11 -38 -1 0 -0 0 0 0 0 -0 -0 0 0 0 0
-1 -14 -1 -0 -4 -12 -14 -1 -2 -14 -0 -0 -0 0 -0 0 0 0 0 0 0 0
0 -0 -0 -1 -0 -0 -0 0 0 0 0 0 0 0 0 0 0 0 0 0 0 0
0 0 -0 0 0 -1 0 0 0 0 0 0 0 0 0 0 0 0 0 0 0 0
0 0 0 0 0 0 0 0 0 0 0 0 0 0 0 0 0 0 0 0 0 0
Wind_Speed
nan 57 56 56 58 59 59 54 48 47 48 51 55 56 57 52 nan 52 51 nan 51 50
nan nan nan 60 60 60 61 62 60 54 51 51 54 56 57 55 nan 57 52 53 53 nan
nan nan nan nan nan 65 66 68 67 64 59 56 57 58 61 60 60 61 54 nan nan nan
nan nan nan nan nan nan nan nan 75 73 69 67 63 63 65 nan nan 64 nan 59 nan nan
nan nan nan nan nan nan nan nan nan nan 75 72 72 69 nan nan nan 66 nan nan nan nan
nan nan nan nan nan nan nan nan nan nan nan nan nan nan nan 70 nan nan nan nan nan nan
nan 51 53 64 nan nan nan 66 65 68 nan nan nan 66 nan nan nan nan nan nan nan nan
nan 42 45 52 nan nan 71 nan 64 nan nan nan nan nan nan nan nan nan nan nan nan nan
nan 29 37 40 46 51 60 63 65 nan nan nan nan nan nan nan nan nan nan nan nan nan
nan nan nan nan nan nan nan nan nan nan nan nan nan nan nan nan nan nan nan nan nan nan
nan nan nan nan nan nan nan nan nan nan nan nan nan nan nan nan nan nan nan nan nan nan
nan nan nan nan nan nan nan nan nan nan nan nan nan nan nan nan nan nan nan nan nan nan
nan nan nan nan nan nan nan nan nan nan nan nan nan nan nan nan nan nan nan nan nan nan
nan nan nan nan nan nan nan nan nan nan nan nan nan nan nan nan nan nan nan nan nan nan
Wind_Direction
nan 260 260 258 261 265 266 265 262 264 266 268 269 271 273 270 nan 275 278 nan 280 282
nan nan nan 262 261 259 259 261 262 259 259 261 265 267 270 270 nan 274 273 280 279 nan
nan nan nan nan nan 259 258 260 263 264 259 258 260 264 267 268 269 271 272 nan nan nan
nan nan nan nan nan nan nan nan 260 261 261 262 261 262 264 nan nan 267 nan 274 nan nan
nan nan nan nan nan nan nan nan nan nan 266 268 265 265 nan nan nan 271 nan nan nan nan
nan nan nan nan nan nan nan nan nan nan nan nan nan nan nan 267 nan nan nan nan nan nan
nan 255 252 247 nan nan nan 253 256 259 nan nan nan 266 nan nan nan nan nan nan nan nan
nan 248 247 249 nan nan 247 nan 253 nan nan nan nan nan nan nan nan nan nan nan nan nan
nan 254 253 255 255 253 253 251 251 nan nan nan nan nan nan nan nan nan nan nan nan nan
nan nan nan nan nan nan nan nan nan nan nan nan nan nan nan nan nan nan nan nan nan nan
nan nan nan nan nan nan nan nan nan nan nan nan nan nan nan nan nan nan nan nan nan nan
nan nan nan nan nan nan nan nan nan nan nan nan nan nan nan nan nan nan nan nan nan nan
nan nan nan nan nan nan nan nan nan nan nan nan nan nan nan nan nan nan nan nan nan nan
nan nan nan nan nan nan nan nan nan nan nan nan nan nan nan nan nan nan nan nan nan nan